STARLINK-2596 (48409 NORAD) Tracking and Keplerian Element Data

This shows tracking and keplerian element data for the satellite.

Feedback or suggestion? Click here.




ElementValue
Catalog48409
NameSTARLINK-2596
Epoch Orbit1469
Epoch Day215.25002315
Epoch Year2021
RAAN325.9053
Inclination53.0544
Eccentricity0.0001022
Argument of Perigee85.6882
Mean Anonmoly349.4209
Mean Motion15.06373663
Decay Rate0.0003576
L11 48409U 21038BJ 21215.25002315 .00035760 00000-0 24092-2 0 9998
L22 48409 53.0544 325.9053 0001022 85.6882 349.4209 15.06373663 14698

Live tracking and technical data element details for STARLINK-2596 (NORAD 48409). STARLINK-2596 can be tracked NOW for your location showing map with azimuth and elevation plus other details from your city location.

Track the satellite on the map from your city or location and see movement details for azimuth, elevation, latitude, longitude, range, height, and movement on the map or in text.







IsCatalogInMostPopularTable: catalog: 48409, numindb: 33
Update: records affected: 1



GetName: 48409 STARLINK-2596

Hit Count: updated at: Tue, 03 Aug 2021 23:38:19 GMT